DELTA 1 DEB

Satellite information

Favourite Embed

Satellite Type and Status

DEBRISIN ORBIT

Key statistics

Satellite DELTA 1 DEB at a glance.

Uptime

17451

Days in orbit

Revolutions

≈ 14.1

Per day

Orbit

SSO

Sun Synchronous Orbit

Inclination

99.1

Latest

Satellite identification and parameters

Extended collection of information and parameters for DELTA 1 DEB.

Object identification

Identified? True

Debris? True

Object name: DELTA 1 DEB

International designator: 1978-026EJ

Object number (NORAD): 12290

Object ID (CCSDS): 12290

Country: UNITED STATES OF AMERICA (US)

Current information (Y/N): Y

RCS size: SMALL

Orbital parameters

Period: 101.885 minutes

Inclination: 99.1242 deg

SMA: 7226.057 km

Apoapsis: 906.951 km

Periapsis: 788.893 km

RAAN: 341.8242 deg

Eccentricy: 0.00816892

Argument of periapsis: 106.2781 deg

Mean anomaly: 254.7395 deg

Mean motion: 14.13353123 rev/day

Mean motion (dot): 0.00000555 rev/day2

B* drag term: 0.00031023705 1/REarth

Two-line elements (TLE)

Creation date: Dec. 14, 2025, 3:07 a.m.

Reference frame: TEME

Reference center: EARTH

Epoch: Dec. 13, 2025, 12:36 p.m. UTC

TLE line 0: 0 DELTA 1 DEB

TLE line 1: 1 12290U 78026EJ 25347.52509067 .00000555 00000-0 31024-3 0 9990

TLE line 2: 2 12290 99.1242 341.8242 0081689 106.2781 254.7395 14.13353123287563

Live tracking on map

Real-time ground track for satellite DELTA 1 DEB.

In-orbit conjunctions

A list of the most updated potential collisions computed for object DELTA 1 DEB.

Target Orbit TCA Probability of collision Miss distance Type
FENGYUN 1C DEB SSO 2025-03-10 02:47:06 0.0001444727 342.0 (m) DEBRIS
FENGYUN 1C DEB SSO 2024-12-03 07:26:13 0.0001665209 75.0 (m) DEBRIS
THORAD AGENA D DEB SSO 2024-11-09 10:38:02 0.0008329825 356.0 (m) DEBRIS

Associated space launch

Earth observation satellite

DELTA 1 DEB was lifted into orbit during the mission ‘Delta 2910 | Landsat 3’, on board a Delta 2910 space rocket.

The launch took place on March 5, 1978, 5:54 p.m. from Space Launch Complex 2W.

For more information about the launch, click the button.

Launch to space Delta 2910 | Landsat 3
Delta 2910 | Landsat 3

Agency: N/A

Status: Launch Successful

Launch date: March 5, 1978, 5:54 p.m. UTC

Rocket: Delta 2910

Launch pad: Space Launch Complex 2W

Location: Vandenberg SFB, CA, USA

...

Latest news about this satellite

There are no fresh news available about this satellite. Check back as we update our databases every day.


Newsletter sign-up

Weekly statistics, charts and insights to help you stay on top of the space industry.